Regional Weather Roundup
Issued by NWS Midland/Odessa, TX

Skip options and go directly to product.
Home | Oldest Version | Previous Version | Current Version | All | Text Only | Save Text | Print | Product List | Glossary On

Skip product version selection by date and time.   
114
ASUS44 KMAF 011201
RWRMAF
MIDLAND AREA WEATHER ROUNDUP
NATIONAL WEATHER SERVICE MIDLAND TX
700 AM CDT WED JUL 01 2015

...IN SOUTHWEST TEXAS AND SOUTHEAST NEW MEXICO...

CITY           SKY/WX    TMP DP  RH WIND       PRES   REMARKS
ALPINE         CLEAR     62  59  91 CALM      30.20R
ANDREWS        FAIR      65  65 100 S5        30.10R
ARTESIA        CLEAR     68  59  73 S6        30.10R
BIG SPRING     CLEAR     72  69  90 SE6       30.10R
CARLSBAD       CLEAR     67  60  78 E6        30.07R
DRYDEN           N/A     73  68  84 VRB7      30.05R
FORT STOCKTON  CLEAR     69  64  84 S12       30.07R
GUAD PASS      CLEAR     67  56  67 E6        30.21R
HOBBS          CLEAR     61  61 100 S6        30.12S
MARFA          CLEAR    N/A N/A N/A N6        30.18R
MIDLAND AIRPK  CLEAR     70  66  88 S5        30.09R
MIDLAND INTL   PTCLDY    69  66  90 S7        30.08R
ODESSA         MOCLDY    69  65  86 S12       30.09R
PECOS          CLEAR     67  63  87 E5        30.04R
PRESIDIO       FAIR      73  64  73 NE9       30.04R
SEMINOLE         N/A     65  62  89 CALM      30.11S
SNYDER         CLEAR     68  67  94 S8        30.07R
WINK           CLEAR     68  65  90 E7        30.05S
$$
...OTHER STATIONS IN TEXAS...

CITY           SKY/WX    TMP DP  RH WIND       PRES   REMARKS
ABILENE        CLEAR     71  66  84 SW7       30.04R
AMARILLO       CLEAR     68  61  78 SW13      30.07R
AUSTIN         PTCLDY    67  67 100 CALM      30.04R
BROWNSVILLE    HVY RAIN  74  72  93 SE24G36   30.01R VSB 3/4
CORPUS CHRISTI MOCLDY    77  75  93 S5        29.99R
DALLAS FTW     PTCLDY    75  69  81 S12       29.99R
DEL RIO        CLOUDY    74  70  87 SE9       30.02R
EL PASO        PTCLDY    72  52  49 NE3       30.08R
HOUSTON INT    MOCLDY    74  73  97 VRB3      30.03S
LUBBOCK        PTCLDY    71  64  78 SW13      30.08R
SAN ANGELO     CLOUDY    71  67  87 S9        30.07R
SAN ANTONIO    PTCLDY    73  70  90 NW3       30.05R
WACO           CLEAR     72  70  93 S9        30.02S
WICHITA FALLS  NOT AVBL
$$
...OTHER LOCATIONS IN NEW MEXICO...

CITY           SKY/WX    TMP DP  RH WIND       PRES   REMARKS
ALAMAGORDO     PTCLDY    64  46  52 NE5       30.13R
ALBUQUERQUE    PTCLDY    74  49  41 E9        30.22R
CANNON AFB     CLEAR     63  57  83 SW6       30.13S
CLOVIS         CLEAR     59  55  88 SW7         N/A
HOLLOMAN AFB   PTCLDY    65  48  53 NE6       30.10S
ROSWELL        CLEAR     62  54  74 S5        30.08S
RUIDOSO        CLEAR     57  45  62 W7        30.31R
SANTA FE       PTCLDY    63  43  48 N8        30.25F
TRUTH OR CONSE MOCLDY    68  50  52 W6        30.14R
TUCUMCARI      CLEAR     70  55  59 W12       30.07F
$$

USA.gov is the U.S. government's official web portal to all federal, state and local government web resources and services.